Regional Weather Roundup
Issued by NWS

Home | Current Version | Previous Version | Text Only | Print | Product List | Glossary Off
Versions: 1 2 3 4 5 6 7 8 9 10 11 12 13 14 15 16 17 18 19 20 21 22 23 24 25 26 27 28 29 30 31 32 33 34 35 36 37 38 39 40 41 42 43 44 45 46 47 48 49 50

913
ASUS43 KBIS 102202
RWRND

NORTH DAKOTA REGIONAL WEATHER ROUNDUP
NATIONAL WEATHER SERVICE BISMARCK ND
400 PM CST WED FEB 10 2016

NOTE: "FAIR" INDICATES FEW OR NO CLOUDS BELOW 12,000 FEET WITH NO
SIGNIFICANT WEATHER AND/OR OBSTRUCTIONS TO VISIBILITY.


NDZ001>003-009>011-017-102300-
NORTHWEST NORTH DAKOTA

CITY           SKY/WX    TMP DP  RH WIND       PRES   REMARKS
WILLISTON      CLOUDY    31  25  78 N9        30.09S
MINOT          LGT SNOW  16   7  67 N8        30.13R WCI   5
MINOT AFB      FLURRIES  13  10  84 NE7       30.13R WCI   3
$$

NDZ018>021-031>035-040>046-102300-
SOUTHWEST NORTH DAKOTA

CITY           SKY/WX    TMP DP  RH WIND       PRES   REMARKS
BISMARCK       CLOUDY    24  15  68 NE8       30.09R WCI  15
DICKINSON      CLOUDY    32  26  78 N21       30.02R WCI  20
GARRISON         N/A     19  14  81 N12G18    30.09R WCI   7
HETTINGER ARPT SUNNY     43  29  57 N18       30.01R
$$

NDZ004>008-012>016-024-026-027-054-102300-
NORTHEAST NORTH DAKOTA

CITY           SKY/WX    TMP DP  RH WIND       PRES   REMARKS
GRAND FORKS    CLOUDY    10   0  63 NE9       30.22R WCI  -3
GRND FRKS AFB  CLOUDY     9  -1  63 NE9       30.22R WCI  -4
DEVILS LAKE    FLURRIES   7   2  80 E10       30.17R WCI  -8
$$

NDZ022-023-025-028>030-036>039-047>053-102300-
SOUTHEAST NORTH DAKOTA

CITY           SKY/WX    TMP DP  RH WIND       PRES   REMARKS
FARGO          CLOUDY    12   1  61 N10       30.17R WCI  -1
JAMESTOWN      LGT SNOW   9   5  84 NE10      30.12R FOG     WCI  -5
$$





USA.gov is the U.S. government's official web portal to all federal, state and local government web resources and services.